Temp_Advection
nan nan nan nan nan nan nan nan nan nan nan nan nan nan nan nan nan nan nan nan nan nan nan nan nan nan nan nan nan nan nan nan nan nan nan nan nan nan nan nan nan nan nan nan
nan 0 -0 0 0 -0 -0 0 -1 -1 -1 -0 -0 -1 -0 -0 -2 -1 -1 -2 -2 0 -0 -1 1 1 -0 -1 -0 -0 -1 -1 -1 -1 -0 0 1 1 1 -0 -0 -0 0 nan
nan -0 -0 0 0 -0 -0 -0 -0 -1 -1 -1 -0 -1 -1 -1 -1 -1 -1 -1 -2 -2 -0 0 -0 0 -1 -1 -1 -1 -1 -0 -1 -0 1 1 0 -1 -2 -2 -1 -0 0 nan
nan -0 -0 0 -0 0 -0 -0 -0 -0 -0 -1 0 -0 -1 -1 -0 -0 -2 -2 -2 -2 -2 -1 1 0 -0 -1 -1 -1 -1 -0 -0 1 -1 -2 -2 -3 -3 -0 0 1 0 nan
nan -0 0 -0 -0 -0 -0 -0 0 -0 0 -0 -0 -0 -1 -0 -0 -0 -1 -2 -1 -1 -1 -1 -0 0 1 1 -0 -0 0 -0 0 0 -0 -1 -1 -1 2 1 1 -0 -1 nan
nan -0 -0 -0 -0 -0 -0 0 -0 -0 0 -0 -1 -0 -0 -0 -1 -0 -0 -1 -0 -1 -1 -2 -1 -0 1 1 1 3 3 1 2 1 1 -0 -1 1 1 0 -1 -1 0 nan
nan -1 -0 -0 -0 -0 -0 -0 -0 -0 -0 -1 -0 -0 -1 -0 -0 -0 -0 -2 -2 -2 -1 -1 -1 -1 0 2 2 2 1 1 1 0 1 -0 0 0 -0 0 1 1 1 nan
nan -0 0 -0 0 -0 -0 -0 0 -0 -0 -0 -0 -0 -0 -1 -1 -1 -1 -1 -3 -3 -2 -2 -2 -1 -0 0 1 1 -1 -1 -1 0 0 0 1 1 1 1 1 1 0 nan
nan -0 -1 -0 0 -0 0 0 0 -0 -0 -0 -0 -1 -0 -2 -2 -2 -2 -2 -1 -1 -1 -1 -1 -1 -0 0 1 1 -0 1 2 2 2 1 0 1 1 2 2 2 1 nan
nan -0 -1 -1 -0 -0 -0 -0 -0 -0 -0 -0 -1 -1 -0 -1 -1 -0 -0 -0 0 -0 -1 -1 -1 -1 0 0 0 1 1 2 1 1 0 1 1 3 4 3 2 1 1 nan
nan -0 -1 -0 -0 -0 -0 -0 -0 0 -0 -0 -0 -0 0 0 0 -0 -0 -0 -0 -1 -1 -1 -1 -0 0 -0 -0 0 0 1 1 1 1 2 2 3 2 1 -0 0 0 nan
nan 0 -0 -1 -1 -0 0 -0 -0 -0 -0 -0 0 -1 0 0 0 -0 -0 -1 -1 -1 -2 -1 -2 -1 -1 -1 -1 -0 -0 0 0 1 1 1 1 1 0 0 0 0 0 nan
nan 0 -0 -1 -0 -0 -0 -0 -0 0 0 0 -0 -1 -0 -0 -1 -1 -1 -1 -1 -1 -2 -1 -2 -1 -1 -1 -1 -1 -0 -0 -0 -0 0 0 0 0 0 0 0 0 0 nan
nan 0 -0 0 -0 -0 -0 -1 -0 0 0 -0 -0 -1 -1 -1 -1 -0 -1 -1 -1 -2 -2 -2 -2 -1 -1 -1 -2 -2 -1 -1 -0 -0 -0 -0 0 0 -0 -0 0 0 0 nan
nan -0 -0 -0 -0 -0 -0 -1 -0 -0 0 -0 -1 -1 -1 -1 -1 -0 -0 -1 -2 -2 -2 -2 -2 -1 -1 -1 -2 -1 -1 -1 -1 -1 -1 -0 -0 -0 -0 -0 -0 -0 0 nan
nan 0 -0 -0 -1 -0 -1 -0 -0 -1 -1 -0 -0 0 -0 -0 -1 -1 -1 -1 -1 -1 -1 -1 -1 -2 -2 -2 -1 -1 -1 -1 -1 -1 -1 -1 -1 -1 -1 -1 -1 -0 -1 nan
nan -0 -0 -0 -0 -0 -0 -1 -0 -0 -0 0 -0 -0 -0 -0 -0 -0 -1 -1 -1 -1 -1 -1 -1 -1 -3 -2 -1 -2 -1 -1 -1 -1 -1 -1 -1 -1 -1 -1 -1 -1 -1 nan
nan -0 0 -0 -0 0 -1 0 -0 -0 -1 -0 -0 -0 -0 -0 -0 -0 -0 -1 -1 -1 -1 -1 -1 -1 -1 -2 -2 -2 -2 -2 -2 -1 -1 -1 -1 -1 -1 -1 -1 -1 -1 nan
nan -0 0 -0 -0 -1 -0 -0 -0 -0 0 -0 -0 -0 -0 -1 -0 -0 -1 -1 -1 -1 -1 -1 -1 -0 -1 -1 -2 -2 -2 -2 -2 -2 -2 -1 -1 -1 -1 -1 -0 -0 -0 nan
nan 0 -0 -0 0 -0 0 -0 0 0 0 0 0 -0 -0 -0 -0 -0 -0 -0 -0 -0 -1 -2 -2 -2 -1 -1 -1 -2 -1 -0 -1 -2 -2 -2 -2 -2 -1 -1 -1 -0 -0 nan
nan 0 0 0 0 -0 0 -0 -0 -0 -0 -0 0 0 0 -0 -0 0 -0 -0 -1 -1 -1 -1 -2 -2 -2 -2 -3 -3 -3 0 1 -2 -2 -3 -2 -2 -2 -1 -1 -1 -0 nan
nan 0 0 0 0 -1 0 -0 -0 -0 -0 -0 -0 0 0 0 -0 -0 -0 -0 -1 -1 -1 -1 -1 -1 -1 -1 -3 -4 -4 -3 -0 -1 -2 -1 -2 -2 -2 -2 -1 -1 -1 nan
nan -0 -0 -0 -0 -0 -0 -0 0 0 -0 -0 -0 -0 -0 -0 -0 -0 -1 -1 -0 -0 -0 -0 -0 -1 -1 -1 -1 -4 -5 -4 -4 -4 -4 -2 -2 -2 -2 -2 -1 -0 -1 nan
nan 0 0 -0 -0 -0 -0 -0 -0 -0 0 -0 -0 -0 0 0 -0 -0 -0 -0 -0 -1 -0 -0 -1 -2 -1 -0 -1 -2 -4 -4 -4 -5 -5 -4 -5 -4 -1 -2 -1 -1 -1 nan
nan -0 0 -0 -0 -0 -0 -0 -0 -0 -0 0 0 -0 -0 -0 -0 0 -0 -0 -0 -1 -1 -1 -2 -3 -3 -1 -0 -0 -1 -2 -2 -4 -5 -4 -3 -3 -4 -4 -3 -2 -1 nan
nan nan nan nan nan nan nan nan nan nan nan nan nan nan nan nan nan nan nan nan nan nan nan nan nan nan nan nan nan nan nan nan nan nan nan nan nan nan nan nan nan nan nan nan
Wind_Speed
9 5 3 7 8 11 11 16 22 20 17 18 19 20 17 22 23 21 28 42 29 29 35 41 53 52 51 48 44 43 41 39 40 46 47 46 45 41 38 35 34 34 32 32
6 1 4 9 11 11 14 18 22 18 15 18 16 20 18 10 18 24 26 32 40 44 28 38 45 55 58 58 51 50 47 43 41 43 45 46 45 43 40 37 35 36 34 33
0 6 10 8 9 13 13 14 16 23 14 19 17 23 14 19 20 24 25 31 40 48 50 38 35 48 58 63 62 58 54 49 44 41 43 44 45 44 41 42 40 39 38 36
3 4 9 10 11 7 14 12 20 15 12 15 2 16 10 14 13 8 22 32 34 42 50 48 45 34 53 65 68 64 61 55 49 46 47 46 46 49 48 46 43 42 42 41
7 10 7 7 9 9 10 16 13 19 14 13 10 9 7 9 11 9 9 25 26 35 29 30 31 29 41 55 70 70 67 63 56 54 52 49 47 44 45 48 47 46 45 45
9 14 3 3 10 5 12 11 12 10 8 9 11 12 11 7 9 7 6 26 18 28 28 24 17 23 23 49 62 72 73 69 63 60 57 53 48 45 48 49 48 48 48 47
5 6 4 10 12 9 7 5 4 5 3 12 6 8 15 6 14 13 9 26 37 41 38 31 26 19 18 33 57 62 68 71 68 66 62 57 50 45 43 41 42 44 47 48
6 7 6 14 8 7 6 2 3 6 2 4 6 6 6 7 16 20 23 26 29 30 27 27 21 20 17 24 39 58 66 68 69 67 65 58 53 48 45 44 42 42 43 41
4 5 16 8 20 3 5 3 10 3 9 4 4 5 4 19 21 24 23 28 29 37 31 17 13 10 7 7 33 46 53 65 67 68 64 60 57 51 49 47 46 45 43 42
4 8 6 11 8 9 6 4 5 1 2 5 8 6 2 19 15 15 13 20 28 36 37 37 30 23 18 4 7 19 39 46 54 57 58 58 55 51 51 49 47 46 44 43
3 2 8 7 5 9 4 4 2 3 3 3 4 5 11 17 16 15 14 20 28 36 35 31 34 30 21 19 14 9 9 17 24 29 35 44 47 47 46 42 39 38 39 40
1 3 4 16 16 6 3 4 5 3 5 3 2 6 7 16 14 23 26 30 31 34 35 33 36 28 23 25 23 19 19 13 7 10 11 11 13 15 17 19 21 25 30 31
4 2 5 8 6 4 5 12 12 3 2 4 1 6 12 16 19 21 23 29 29 32 38 35 40 40 39 35 26 20 16 14 12 13 12 10 9 7 7 7 11 16 21 23
2 4 7 6 5 8 11 14 12 8 2 4 7 20 15 12 15 15 22 21 18 25 30 33 32 30 30 35 34 32 20 12 10 10 4 2 1 2 4 5 8 11 13 16
3 3 3 6 11 11 16 16 13 11 11 4 13 17 12 14 13 13 15 21 28 29 31 27 30 30 30 28 31 29 26 20 15 13 9 7 10 12 13 16 18 21 21 20
3 4 5 8 10 12 13 15 17 14 15 13 14 7 8 12 21 18 23 24 23 24 27 28 33 29 20 29 31 28 24 22 19 17 19 17 13 11 14 17 19 21 22 23
3 3 0 4 5 10 5 4 4 5 3 4 3 2 6 9 12 14 17 20 20 26 28 29 29 31 31 29 27 31 29 24 20 18 15 17 20 20 19 20 22 25 30 30
4 4 2 4 5 3 5 9 8 5 9 9 6 8 11 12 11 15 20 21 21 25 28 31 33 36 38 37 32 30 29 27 24 24 25 19 19 21 23 24 24 27 28 29
18 4 1 1 2 7 4 6 6 3 2 9 8 13 16 23 10 7 21 18 20 24 27 28 31 33 35 36 37 37 36 32 29 26 24 23 22 23 24 23 26 26 27 30
12 7 3 2 3 4 1 7 17 8 4 11 7 11 13 15 6 4 19 22 25 25 30 36 37 35 35 39 40 40 40 40 40 35 34 33 30 25 25 25 23 24 27 30
4 3 10 7 5 6 2 9 12 1 4 21 15 17 17 4 9 11 18 23 26 31 34 25 28 33 31 35 37 41 43 42 43 41 41 40 37 35 31 29 27 28 31 32
3 3 4 2 1 6 11 4 3 8 22 15 22 23 26 25 15 17 24 27 23 20 25 28 31 34 36 36 38 41 42 44 47 47 46 43 42 40 38 35 31 27 29 35
3 5 3 6 5 5 3 10 21 11 16 19 22 17 11 15 17 21 26 30 31 25 29 33 35 38 40 40 37 40 46 44 46 48 49 48 46 45 43 41 39 34 27 37
4 4 4 2 2 5 23 30 19 22 22 30 10 14 16 15 20 24 28 27 26 31 33 36 39 41 45 43 42 40 45 45 44 46 48 49 48 47 46 45 44 44 36 32
7 3 5 10 14 18 21 16 20 23 28 7 10 13 16 19 21 23 23 24 28 30 35 37 39 42 46 47 47 43 39 40 43 45 47 48 48 49 49 48 46 43 43 36
18 14 5 8 18 15 21 25 28 27 7 10 14 14 15 13 16 21 25 27 27 32 35 33 34 37 43 43 45 42 40 38 39 43 45 46 46 48 46 46 50 44 42 39
Wind_Direction
6 58 313 275 235 242 261 267 275 283 293 296 288 292 294 290 273 270 258 267 254 226 230 229 223 223 224 222 219 217 214 215 210 212 216 218 219 220 222 224 226 227 225 226
9 10 263 307 305 307 297 269 269 277 277 273 285 276 286 273 282 279 271 262 262 267 231 226 227 219 221 224 220 221 219 219 215 215 217 221 222 223 226 226 227 229 229 229
253 264 302 310 308 307 302 294 298 271 273 271 284 280 273 278 269 276 286 285 255 256 262 249 233 226 220 223 224 221 221 221 220 219 217 219 222 226 228 231 231 233 234 235
283 269 304 298 288 264 284 299 294 328 286 262 97 283 280 275 277 278 288 298 266 244 252 253 250 232 225 223 226 224 221 219 222 217 216 216 221 224 229 231 233 235 237 240
263 286 281 280 259 271 274 277 297 296 278 284 255 266 271 257 270 268 284 309 295 247 255 251 251 258 235 229 224 224 222 219 219 219 218 217 219 228 234 232 234 236 239 242
263 285 212 242 344 299 273 280 283 284 261 263 248 248 269 244 263 283 284 299 307 311 330 324 303 279 271 231 225 222 221 219 218 220 220 220 221 224 227 232 234 238 241 243
323 304 341 23 347 320 350 51 322 273 248 259 217 229 258 252 267 253 279 298 298 302 310 317 320 300 268 234 213 213 215 217 219 219 221 222 223 227 232 238 242 240 241 242
359 327 28 330 315 273 313 72 232 306 291 286 249 242 299 286 275 279 295 313 333 336 328 329 311 324 307 244 227 220 216 219 220 221 223 224 226 228 234 239 243 245 246 252
332 268 318 327 322 294 333 4 293 192 284 255 246 274 17 32 24 25 29 19 12 21 16 12 1 312 357 235 225 218 222 222 222 222 224 225 227 230 235 241 244 247 251 253
331 294 303 337 317 336 295 16 2 223 5 337 318 324 29 18 357 357 1 8 10 14 15 23 29 40 56 131 148 214 224 226 224 224 226 227 230 234 237 241 244 248 253 257
18 299 295 318 36 332 360 29 336 234 355 322 334 275 59 14 347 334 339 348 4 5 7 7 20 39 57 62 75 115 154 203 210 227 237 238 239 239 243 251 258 262 263 264
337 266 300 299 289 243 163 47 19 52 339 286 240 270 20 358 341 338 354 3 356 15 8 5 16 18 30 45 57 64 67 79 115 145 154 184 214 219 227 240 246 252 256 262
330 301 324 333 25 354 5 6 341 264 221 251 37 259 355 341 9 27 8 353 18 9 26 19 21 29 36 40 40 34 32 31 49 87 110 123 143 175 199 228 253 255 256 264
210 215 190 223 249 305 302 313 312 305 218 272 257 291 330 15 26 28 21 4 358 350 19 8 2 9 3 2 5 14 24 26 18 4 3 24 199 217 238 300 320 307 294 281
67 263 280 293 302 291 281 282 277 269 264 249 280 293 358 357 346 26 36 26 21 26 26 16 12 16 16 2 9 15 5 11 24 7 350 334 315 306 301 301 303 305 310 310
26 289 333 294 277 275 294 285 274 262 269 268 275 309 1 351 25 34 21 15 21 20 18 14 7 8 349 356 2 5 8 5 358 1 356 342 330 313 303 303 303 304 302 298
223 203 12 270 314 325 338 258 291 253 309 292 29 310 316 1 20 44 24 13 14 11 8 8 360 354 354 356 352 344 348 346 344 349 351 343 337 326 318 307 302 299 299 295
201 180 198 270 339 5 231 17 11 70 58 21 350 342 344 338 336 59 22 13 14 10 4 2 357 347 346 342 338 334 333 334 330 332 338 339 341 327 323 317 310 308 306 302
199 163 243 177 233 284 328 22 346 347 115 26 344 339 344 354 24 19 11 13 7 357 351 346 340 338 332 333 329 326 323 322 323 323 317 315 316 322 310 306 309 309 306 304
173 175 147 225 249 261 58 324 317 291 230 346 351 328 328 350 3 307 354 351 344 342 338 334 332 325 321 319 319 318 316 316 318 316 312 309 308 302 306 303 302 299 300 297
133 176 208 232 247 269 157 1 328 72 293 320 322 311 309 295 299 320 327 330 330 330 334 338 328 326 323 321 322 319 315 309 315 314 309 304 301 297 293 295 303 290 292 294
191 201 195 207 150 273 27 34 25 273 303 315 312 317 310 313 315 327 325 327 335 334 330 328 326 321 318 319 318 312 305 305 306 305 303 301 298 293 287 286 289 297 287 285
260 195 200 197 227 271 343 335 318 325 319 303 303 310 314 314 322 324 323 324 326 329 330 326 324 321 320 323 322 314 308 307 303 299 295 291 291 289 289 286 279 284 285 276
261 213 221 351 224 278 312 311 307 313 311 320 276 296 307 314 315 320 321 321 320 324 327 329 328 325 325 327 322 314 310 309 305 298 289 285 285 283 282 280 276 274 277 280
209 280 231 262 285 281 281 282 297 311 313 277 294 308 313 315 316 319 319 321 323 325 330 332 333 328 324 324 320 315 307 305 302 298 293 287 283 279 277 275 275 271 268 277
229 242 219 252 262 259 274 289 300 311 278 297 302 310 313 307 305 312 311 314 320 328 335 329 323 321 319 316 314 314 311 304 297 295 290 288 286 281 276 274 273 271 264 265
Height
1517 1524 1528 1525 1525 1521 1519 1519 1512 1504 1501 1500 1493 1484 1474 1469 1464 1462 1460 1452 1457 1460 1463 1464 1467 1470 1473 1475 1477 1481 1484 1489 1494 1497 1500 1505 1507 1513 1517 1520 1525 1528 1531 1534
1521 1524 1519 1518 1519 1519 1517 1515 1506 1499 1497 1492 1487 1477 1468 1465 1462 1461 1457 1455 1448 1446 1455 1458 1459 1462 1464 1468 1469 1474 1477 1480 1485 1489 1492 1497 1502 1507 1512 1516 1518 1521 1524 1528
1523 1520 1516 1516 1517 1518 1514 1513 1504 1499 1495 1485 1485 1473 1470 1455 1455 1454 1450 1448 1445 1441 1441 1447 1451 1452 1454 1458 1462 1464 1468 1471 1476 1482 1487 1492 1498 1503 1506 1507 1510 1513 1517 1520
1521 1516 1517 1516 1516 1514 1513 1507 1502 1498 1496 1490 1479 1479 1468 1454 1450 1449 1443 1441 1438 1437 1436 1437 1439 1442 1441 1443 1450 1453 1458 1461 1466 1471 1476 1479 1482 1486 1490 1497 1502 1506 1510 1513
1524 1516 1516 1515 1509 1505 1503 1500 1498 1495 1492 1487 1485 1485 1463 1457 1452 1447 1441 1440 1434 1433 1433 1433 1432 1430 1430 1431 1436 1442 1447 1452 1456 1460 1464 1468 1473 1478 1484 1489 1494 1498 1502 1505
1520 1511 1509 1509 1502 1498 1496 1495 1492 1488 1486 1490 1476 1479 1465 1464 1452 1442 1438 1437 1438 1436 1431 1426 1422 1419 1419 1421 1423 1429 1435 1440 1446 1450 1455 1459 1464 1470 1474 1478 1484 1489 1493 1496
1519 1512 1507 1504 1504 1496 1495 1498 1507 1496 1493 1479 1466 1474 1456 1451 1444 1440 1438 1435 1431 1430 1425 1423 1418 1413 1414 1415 1415 1422 1425 1430 1439 1442 1446 1451 1457 1463 1466 1470 1473 1479 1483 1486
1531 1521 1511 1506 1509 1506 1498 1496 1516 1505 1493 1481 1462 1469 1455 1445 1441 1437 1437 1438 1434 1428 1424 1421 1416 1410 1410 1412 1412 1415 1418 1422 1427 1434 1440 1445 1450 1455 1460 1464 1467 1470 1474 1478
1536 1521 1512 1509 1502 1501 1498 1506 1494 1505 1503 1491 1470 1454 1445 1445 1445 1447 1446 1442 1438 1430 1424 1422 1418 1410 1408 1409 1411 1413 1413 1416 1420 1424 1432 1439 1443 1448 1453 1457 1461 1465 1468 1472
1535 1532 1514 1510 1503 1502 1499 1495 1504 1501 1497 1498 1482 1477 1462 1464 1458 1451 1449 1444 1442 1435 1429 1427 1423 1415 1409 1410 1409 1414 1416 1417 1420 1422 1427 1433 1438 1443 1447 1452 1455 1458 1463 1466
1536 1538 1521 1515 1513 1515 1507 1506 1500 1499 1506 1495 1493 1480 1468 1467 1464 1457 1451 1448 1443 1439 1435 1431 1429 1424 1420 1416 1413 1415 1418 1420 1421 1424 1428 1431 1435 1439 1445 1450 1453 1456 1459 1460
1536 1537 1532 1522 1511 1512 1510 1512 1508 1508 1507 1502 1500 1488 1464 1467 1463 1459 1453 1449 1447 1446 1442 1437 1433 1431 1433 1427 1425 1426 1424 1426 1424 1422 1426 1430 1435 1439 1441 1445 1448 1450 1452 1454
1537 1543 1547 1526 1514 1512 1513 1512 1513 1510 1510 1504 1502 1485 1465 1467 1463 1466 1459 1454 1449 1447 1446 1441 1439 1435 1431 1430 1428 1429 1432 1434 1432 1430 1431 1434 1435 1438 1440 1442 1444 1444 1444 1443
1533 1536 1536 1542 1532 1529 1524 1519 1514 1512 1516 1509 1499 1478 1474 1472 1470 1465 1460 1456 1452 1450 1449 1445 1444 1440 1436 1434 1434 1434 1432 1430 1433 1434 1432 1434 1436 1435 1436 1437 1438 1440 1439 1436
1535 1539 1531 1529 1527 1525 1521 1515 1510 1508 1504 1511 1491 1484 1481 1481 1475 1471 1466 1461 1455 1454 1452 1451 1451 1444 1440 1438 1438 1436 1437 1434 1431 1431 1430 1430 1429 1429 1429 1429 1428 1431 1431 1430
1536 1541 1534 1528 1521 1517 1514 1509 1504 1502 1497 1492 1485 1485 1487 1484 1478 1474 1469 1465 1463 1462 1460 1457 1449 1444 1444 1446 1441 1437 1435 1431 1428 1425 1424 1423 1422 1422 1421 1420 1421 1422 1425 1424
1537 1536 1537 1532 1519 1516 1530 1504 1496 1491 1489 1489 1493 1493 1489 1485 1483 1479 1476 1472 1469 1466 1461 1459 1459 1456 1450 1443 1438 1438 1435 1431 1427 1426 1424 1423 1422 1420 1418 1418 1418 1417 1417 1416
1531 1533 1534 1534 1522 1553 1500 1497 1493 1487 1493 1493 1491 1489 1487 1485 1483 1481 1476 1471 1468 1467 1464 1460 1455 1446 1435 1439 1438 1438 1435 1431 1427 1424 1422 1418 1416 1416 1415 1413 1412 1412 1412 1411
1521 1528 1540 1544 1528 1508 1495 1499 1500 1498 1497 1494 1490 1485 1482 1480 1480 1478 1477 1474 1470 1463 1459 1457 1453 1446 1447 1443 1437 1433 1432 1431 1428 1426 1425 1422 1418 1414 1413 1410 1408 1408 1405 1406
1514 1523 1532 1528 1521 1523 1501 1498 1494 1491 1493 1489 1488 1486 1483 1480 1482 1479 1476 1473 1470 1467 1463 1457 1452 1450 1446 1440 1439 1436 1428 1418 1416 1420 1415 1413 1415 1409 1407 1405 1399 1400 1400 1399
1519 1524 1525 1525 1523 1506 1499 1495 1488 1494 1496 1485 1485 1483 1481 1481 1480 1475 1473 1471 1468 1462 1458 1456 1452 1446 1440 1436 1429 1417 1409 1410 1412 1407 1406 1405 1397 1400 1398 1397 1394 1391 1391 1389
1513 1521 1525 1522 1536 1517 1495 1492 1499 1495 1487 1486 1483 1479 1476 1476 1474 1470 1466 1464 1464 1460 1455 1452 1446 1440 1437 1432 1425 1418 1414 1409 1404 1398 1395 1391 1392 1390 1387 1386 1384 1384 1384 1382
1518 1508 1514 1509 1500 1488 1491 1493 1491 1489 1487 1484 1481 1477 1474 1472 1470 1467 1462 1458 1454 1454 1452 1446 1441 1433 1428 1424 1421 1414 1405 1400 1392 1388 1384 1381 1379 1376 1371 1371 1374 1376 1377 1375
1504 1502 1505 1501 1490 1489 1488 1487 1487 1485 1482 1479 1476 1473 1470 1468 1465 1462 1459 1453 1449 1446 1442 1439 1432 1423 1416 1414 1409 1404 1395 1391 1386 1380 1376 1373 1367 1361 1362 1363 1364 1364 1364 1362
1502 1500 1494 1489 1487 1487 1484 1484 1482 1480 1476 1474 1473 1470 1467 1465 1462 1457 1453 1450 1446 1441 1437 1431 1425 1417 1409 1403 1396 1393 1388 1382 1373 1366 1357 1352 1351 1350 1350 1350 1351 1351 1352 1353
1492 1486 1491 1483 1480 1482 1479 1477 1476 1474 1472 1471 1468 1466 1464 1461 1458 1454 1449 1445 1442 1437 1432 1427 1421 1413 1404 1397 1389 1383 1377 1370 1363 1354 1348 1343 1341 1337 1337 1336 1334 1337 1339 1341